Simultaneous Nadir Overpasses (SNOs) Predictions

Prediction of SNOs between AQUA and NPP Satellite Orbit:

Table of predicted SNOs for the next 14.0 days since TLE Epoch: 3/25/2016
Index Date (AQUA) Time (AQUA) Lat,Lon (AQUA) SZA (AQUA ) Date (NPP) Time (NPP) Lat,Lon (NPP) SZA (NPP ) Distance(km) Time Diff (sec)
1 03/26/2016 14:06:09 75.20,-154.69 95.91 03/26/2016 14:05:47 75.20,-154.61 95.91 2.40 22
2 03/26/2016 14:55:14 -76.32, 16.26 85.38 03/26/2016 14:56:09 -76.32, 16.35 85.45 2.41 55
3 03/29/2016 05:34:20 -71.87, 146.38 81.56 03/29/2016 05:33:06 -71.92, 146.14 81.46 9.54 74
4 03/29/2016 06:22:39 75.32, -38.49 94.71 03/29/2016 06:22:41 75.32, -38.51 94.72 0.57 2
5 03/29/2016 07:08:16 -81.67,-161.67 98.26 03/29/2016 07:09:29 -81.09,-162.30 98.54 65.66 73
6 03/31/2016 21:50:07 -74.20, -93.10 85.10 03/31/2016 21:49:16 -74.19, -93.16 85.03 1.96 51
7 03/31/2016 22:39:06 75.53, 77.96 93.42 03/31/2016 22:39:32 75.52, 77.87 93.42 2.64 26
8 04/03/2016 14:06:22 -75.07, 24.92 87.10 04/03/2016 14:05:54 -75.07, 24.98 87.09 2.10 28
9 04/03/2016 14:55:23 76.26,-163.94 91.53 04/03/2016 14:56:12 76.27,-163.87 91.47 2.07 49
10 04/06/2016 05:39:00 56.33, -48.35 110.65 04/06/2016 05:37:47 56.55, -49.54 110.98 77.09 73
11 04/06/2016 06:22:46 -75.46, 141.85 88.57 04/06/2016 06:22:42 -75.46, 141.90 88.58 1.47 4




NCC Satellite Simultaneous Nadir Overpasses (SNOs) Prediction Service
